Location: Elmsmere
(40.9284°N, 73.8207°W)
Time: 21:18:17
(UTC+00:00)

STARLINK-2740 - Pass Details

Date: 26 June 2021
Orbit: 349 x 351 km, 53.0° (Epoch: 31 July)

Event Time Altitude Azimuth Distance (km) Brightness Sun altitude
Exits shadow 07:26:17 60° 228° (SW) 431 2.7 -17.1°
Maximum altitude 07:26:46 89° 135° (SE) 379 2.7 -17.1°
Drops below altitude 10° 07:29:52 10° 52° (NE) 1,389 6.9 -16.7°
Enters shadow 08:22:15 -75° 232° (SW) 12,681 10.5 -10.2°
